Weather History for Friday Harbor, WA

Change the Weather History Date:

Wednesday, November 7, 2012

  Actual Average Record
Temperature  
Mean Temperature 48 °F -  
Max Temperature 53 °F 49 °F 57 °F (1999)
Min Temperature 42 °F 38 °F 32 °F (2003)
Degree Days  
Heating Degree Days 18    
Moisture  
Dew Point 40 °F    
Average Humidity 75    
Maximum Humidity 85    
Minimum Humidity 61    
Precipitation  
Precipitation 0.00 in - - ()
Sea Level Pressure  
Sea Level Pressure 30.07 in    
Wind  
Wind Speed 5 mph (SE)    
Max Wind Speed 9 mph    
Max Gust Speed 16 mph    
Visibility 10 miles    
Events      
Averages and records for this station are not official NWS values.
T = Trace of Precipitation, MM = Missing Value Source: NWS Daily Summary

Daily Weather History Graph

Daily Weather History Graph

Search for Another Location

Airport:

Trip Planner

Search our weather history database for the weather conditions in past years. The results will help you decide how hot, cold, wet, or windy it might be!

Date:

Astronomy

Nov. 07, 2012 Rise Set
Actual Time 7:08 AM PST 4:42 PM PST
Civil Twilight 6:35 AM PST 5:15 PM PST
Nautical Twilight 5:57 AM PST 5:53 PM PST
Astronomical Twilight 5:20 AM PST 6:30 PM PST
Moon No Moon Rise 1:23 PM PST (11/7)
Length of Visible Light 10h 40m
Length of Day
9h 33m
Last Quarter, 42% of the Moon is Illuminated
Nov 7
Last Quarter
Nov 13
New
Nov 20
First Quarter
Nov 28
Full
Dec 6
Last Quarter

Hourly Weather History & Observations

Time (PST) Temp. Windchill Dew Point Humidity Pressure Visibility Wind Dir Wind Speed Gust Speed Precip Events Conditions
12:53 AM 48.0 °F - 39.9 °F 74% 30.03 in 10.0 mi SW 8.1 mph 16.1 mph N/A   Clear
1:53 AM 46.9 °F - 41.0 °F 80% 30.04 in 10.0 mi Variable 5.8 mph - N/A   Clear
2:53 AM 45.0 °F - 39.9 °F 82% 30.06 in 10.0 mi Calm Calm - N/A   Clear
3:53 AM 46.0 °F 43.1 °F 41.0 °F 83% 30.07 in 10.0 mi Variable 5.8 mph - N/A   Clear
4:53 AM 46.0 °F - 39.9 °F 79% 30.08 in 10.0 mi Calm Calm - N/A   Partly Cloudy
5:53 AM 44.1 °F - 39.9 °F 85% 30.10 in 10.0 mi Calm Calm - N/A   Partly Cloudy
6:53 AM 42.1 °F - 37.9 °F 85% 30.11 in 10.0 mi Calm Calm - N/A   Clear
7:53 AM 46.0 °F 41.9 °F 37.9 °F 73% 30.11 in 10.0 mi SW 8.1 mph - N/A   Partly Cloudy
8:53 AM 48.9 °F - 41.0 °F 74% 30.12 in 10.0 mi Variable 5.8 mph - N/A   Clear
9:53 AM 46.9 °F - 39.0 °F 74% 30.13 in 10.0 mi SW 5.8 mph - 0.00 in   Mostly Cloudy
10:53 AM 50.0 °F - 39.9 °F 68% 30.13 in 10.0 mi SW 6.9 mph - N/A   Mostly Cloudy
11:53 AM 53.1 °F - 39.9 °F 61% 30.12 in 10.0 mi SSW 8.1 mph - N/A   Clear
12:53 PM 52.0 °F - 39.9 °F 63% 30.11 in 10.0 mi SSW 6.9 mph - N/A   Clear
1:53 PM 51.1 °F - 39.9 °F 66% 30.11 in 10.0 mi SSE 8.1 mph - N/A   Clear
2:53 PM 50.0 °F - 39.9 °F 68% 30.09 in 10.0 mi SE 6.9 mph - N/A   Clear
3:53 PM 48.9 °F - 39.9 °F 71% 30.08 in 10.0 mi SSE 6.9 mph - N/A   Clear
4:53 PM 46.9 °F - 41.0 °F 80% 30.07 in 10.0 mi SE 3.5 mph - N/A   Overcast
5:53 PM 48.0 °F - 41.0 °F 77% 30.06 in 10.0 mi ENE 3.5 mph - N/A   Overcast
6:53 PM 46.9 °F - 39.9 °F 77% 30.05 in 10.0 mi ENE 4.6 mph - N/A   Mostly Cloudy
7:53 PM 46.0 °F 43.1 °F 39.9 °F 79% 30.03 in 10.0 mi ENE 5.8 mph - N/A   Overcast
8:53 PM 46.0 °F 41.9 °F 39.0 °F 76% 30.01 in 10.0 mi ENE 8.1 mph - N/A   Scattered Clouds
9:53 PM 45.0 °F 41.2 °F 37.9 °F 76% 30.00 in 10.0 mi NE 6.9 mph - N/A   Partly Cloudy
10:53 PM 45.0 °F 40.1 °F 37.9 °F 76% 29.98 in 10.0 mi NE 9.2 mph - N/A   Clear
11:53 PM 44.1 °F 39.5 °F 37.0 °F 76% 29.96 in 10.0 mi NE 8.1 mph - N/A   Partly Cloudy